Regional Weather Roundup
Issued by NWS

Home | Current Version | Previous Version | Text Only | Print | Product List | Glossary Off
Versions: 1 2 3 4 5 6 7 8 9 10 11 12 13 14 15 16 17 18 19 20 21 22 23 24 25 26 27 28 29 30 31 32 33 34 35 36 37 38 39 40 41 42 43 44 45 46 47 48 49 50

000
ASUS43 KTOP 071808
RWRKS

WEATHER ROUNDUP FOR KANSAS
NATIONAL WEATHER SERVICE GOODLAND KS
1200 PM CST WED DEC 07 2016

NOTE:  "FAIR" INDICATES FEW OR NO CLOUDS BELOW 12,000 FEET WITH NO
SIGNIFICANT WEATHER AND/OR OBSTRUCTIONS TO VISIBILITY.

KSZ001>006-013>018-027>032-041>047-071900-
NORTHWEST KANSAS

CITY           SKY/WX    TMP DP  RH WIND       PRES   REMARKS
GOODLAND       LGT SNOW  15   9  76 N15       30.26S WCI   0
6HR MIN TEMP:  13; 6HR MAX TEMP:  16; 6HR PCP:  0.05;

HAYS           LGT SNOW  22  17  81 N14       30.34S WCI   9
HILL CITY      CLOUDY    20  13  74 NE14      30.35S WCI   7
6HR MIN TEMP:  18; 6HR MAX TEMP:  21; 6HR PCP: TRACE;

$$

KSZ061>065-074>080-084>089-071900-
SOUTHWEST KANSAS

CITY           SKY/WX    TMP DP  RH WIND       PRES   REMARKS
DODGE CITY     LGT SNOW  22  17  81 NE20      30.25R WCI   7
6HR MIN TEMP:  22; 6HR MAX TEMP:  29; 6HR PCP: TRACE;

ELKHART          N/A     24   9  53 NW9         N/A
GARDEN CITY    LGT SNOW  19  15  84 NE22      30.24S FOG     WCI   2
6HR MIN TEMP:  19; 6HR MAX TEMP:  27; 6HR PCP: TRACE;

GREAT BEND     LGT SNOW  23  18  81 N17G24    30.31R WCI   9
LIBERAL        CLOUDY    30  14  51 E10       30.18R WCI  21
PRATT          CLOUDY    28  13  54 NE17      30.24F WCI  15
6HR MIN TEMP:  28; 6HR MAX TEMP:  29;

$$

KSZ066>073-081>083-090>101-071900-
SOUTHEAST KANSAS

CITY           SKY/WX    TMP DP  RH WIND       PRES   REMARKS
CHANUTE        CLOUDY    36  17  46 N12G20    30.27F WCI  28
6HR MIN TEMP:  33; 6HR MAX TEMP:  36;

COFFEYVILLE    CLOUDY    36  18  48 NE10      30.25F WCI  28
6HR MIN TEMP:  33; 6HR MAX TEMP:  37;

HUTCHINSON     CLOUDY    31  18  58 NE14G25   30.29F WCI  21
6HR MIN TEMP:  29; 6HR MAX TEMP:  33;

MEDICINE LODGE   N/A     35  17  47 NE14      30.22F WCI  26
NEWTON         LGT SNOW  27  25  92 N18       30.28F FOG     WCI  14
PARSONS        CLOUDY    35  21  56 E6        30.27S
6HR MIN TEMP:  34; 6HR MAX TEMP:  36; 6HR PCP: TRACE;

WICHITA INTL   CLOUDY    34  15  46 NE18      30.27S WCI  23
6HR MIN TEMP:  33; 6HR MAX TEMP:  35;

WICHITA JABRA  CLOUDY    32  16  51 N18G26    30.26F WCI  20
6HR MIN TEMP:  31; 6HR MAX TEMP:  34;

WICHITA MCCONL CLOUDY    34  14  44 NE15      30.26S WCI  24
WINFIELD       CLOUDY    36  16  44 E10       30.25S WCI  28
6HR MIN TEMP:  34; 6HR MAX TEMP:  37;

$$

KSZ007>012-019>026-033>040-048>060-102>105-071900-
NORTHEAST KANSAS

CITY           SKY/WX    TMP DP  RH WIND       PRES   REMARKS
CONCORDIA      LGT SNOW  21  16  81 N12       30.36S WCI   9
6HR MIN TEMP:  19; 6HR MAX TEMP:  23; 6HR PCP:  0.03;

EMPORIA        LGT SNOW  27  23  85 N9        30.32S FOG
6HR MIN TEMP:  26; 6HR MAX TEMP:  31; 6HR PCP: TRACE;

LAWRENCE       SNOW      26  24  92 NW13      30.34S VSB 1/2 WCI  15
6HR MIN TEMP:  25; 6HR MAX TEMP:  30; 6HR PCP:  0.01;

MANHATTAN      LGT SNOW  25  18  74 N9        30.37S
6HR MIN TEMP:  25; 6HR MAX TEMP:  29; 6HR PCP: TRACE;

MARYSVILLE     CLOUDY    27  10  50 N10       30.34F WCI  17
OLATHE IND     LGT SNOW  26  22  84 NW12      30.31F VSB 1   WCI  16
6HR MIN TEMP:  26; 6HR MAX TEMP:  30; 6HR PCP: TRACE;

OLATHE EXE     LGT SNOW  25  21  85 N7        30.31S FOG
6HR MIN TEMP:  25; 6HR MAX TEMP:  30; 6HR PCP: TRACE;

SALINA         LGT SNOW  25  21  85 N16       30.36F VSB 1   WCI  12
6HR MIN TEMP:  25; 6HR MAX TEMP:  29; 6HR PCP: TRACE;

TOPEKA BILLARD LGT SNOW  26  22  84 N8        30.35S VSB 1
6HR MIN TEMP:  25; 6HR MAX TEMP:  29; 6HR PCP:  0.03;

TOPEKA FORBES  LGT SNOW  27  22  81 NW13      30.33S VSB 1   WCI  16
6HR MIN TEMP:  26; 6HR MAX TEMP:  30; 6HR PCP:  0.01;

$$




USA.gov is the U.S. government's official web portal to all federal, state and local government web resources and services.